• In Deutschland
  • Länderverzeichnis
  • Für 7 Tage
  • Wassertemperatur
  • Satellitenkarten
  • Wetterkarte
  • Widgets
  • user-avatar
    Anmelden

    Stündliche Wetter Berlin

    Heute, 27 Mai, Samstag

    Zeit Temperatur Niederschläge Wind Luftdruck Luftfeuchtigkeit
    00:00 +14°C° 0 mm 2 m/S 763 mmHg 89%
    01:00 +13°C° 0 mm 2 m/S 763 mmHg 90%
    02:00 +13°C° 0 mm 2 m/S 763 mmHg 91%
    03:00 +13°C° 0 mm 2 m/S 763 mmHg 91%
    04:00 +12°C° 0 mm 2 m/S 763 mmHg 92%
    05:00 +14°C° 0 mm 2 m/S 764 mmHg 85%
    06:00 +16°C° 0 mm 2 m/S 764 mmHg 79%
    07:00 +17°C° 0 mm 2 m/S 764 mmHg 72%
    08:00 +19°C° 0 mm 2 m/S 764 mmHg 65%
    09:00 +21°C° 0 mm 2 m/S 764 mmHg 57%
    10:00 +22°C° 0 mm 3 m/S 764 mmHg 50%
    11:00 +24°C° 0 mm 3 m/S 764 mmHg 47%
    12:00 +25°C° 0 mm 3 m/S 764 mmHg 44%
    13:00 +26°C° 0 mm 3 m/S 764 mmHg 42%
    14:00 +26°C° 0 mm 3 m/S 764 mmHg 42%
    15:00 +26°C° 0 mm 3 m/S 763 mmHg 43%
    16:00 +26°C° 0 mm 3 m/S 763 mmHg 43%
    17:00 +25°C° 0 mm 3 m/S 763 mmHg 49%
    18:00 +23°C° 0 mm 2 m/S 763 mmHg 55%
    19:00 +21°C° 0 mm 2 m/S 763 mmHg 62%
    20:00 +19°C° 0 mm 2 m/S 763 mmHg 62%
    21:00 +18°C° 0 mm 3 m/S 763 mmHg 62%
    22:00 +16°C° 0 mm 3 m/S 763 mmHg 62%
    23:00 +16°C° 0 mm 3 m/S 763 mmHg 64%

    Morgen, 28 Mai, Sonntag

    Zeit Temperatur Niederschläge Wind Luftdruck Luftfeuchtigkeit
    00:00 +14°C° 0 mm 3 m/S 764 mmHg 65%
    01:00 +14°C° 0 mm 3 m/S 764 mmHg 67%
    02:00 +13°C° 0 mm 3 m/S 763 mmHg 72%
    03:00 +13°C° 0 mm 3 m/S 763 mmHg 77%
    04:00 +13°C° 0 mm 3 m/S 763 mmHg 82%
    05:00 +14°C° 0 mm 3 m/S 763 mmHg 78%
    06:00 +17°C° 0 mm 3 m/S 763 mmHg 74%
    07:00 +19°C° 0 mm 4 m/S 763 mmHg 70%
    08:00 +21°C° 0 mm 4 m/S 763 mmHg 64%
    09:00 +23°C° 0 mm 4 m/S 763 mmHg 58%
    10:00 +25°C° 0 mm 4 m/S 762 mmHg 53%
    11:00 +26°C° 0 mm 4 m/S 762 mmHg 50%
    12:00 +27°C° 0 mm 4 m/S 762 mmHg 47%
    13:00 +28°C° 0 mm 5 m/S 761 mmHg 45%
    14:00 +28°C° 0 mm 4 m/S 761 mmHg 45%
    15:00 +28°C° 0 mm 4 m/S 761 mmHg 46%
    16:00 +28°C° 0 mm 4 m/S 760 mmHg 47%
    17:00 +27°C° 0 mm 4 m/S 760 mmHg 54%
    18:00 +26°C° 0 mm 3 m/S 760 mmHg 61%
    19:00 +24°C° 0 mm 3 m/S 759 mmHg 68%
    20:00 +22°C° 0 mm 3 m/S 759 mmHg 72%
    21:00 +20°C° 0 mm 3 m/S 759 mmHg 77%
    22:00 +19°C° 0 mm 3 m/S 759 mmHg 81%
    23:00 +18°C° 0 mm 3 m/S 759 mmHg 83%

    übermorgen, 29 Mai, Montag

    Zeit Temperatur Niederschläge Wind Luftdruck Luftfeuchtigkeit
    00:00 +18°C° 0 mm 3 m/S 759 mmHg 85%
    01:00 +18°C° 0 mm 3 m/S 759 mmHg 87%
    02:00 +17°C° 0 mm 2 m/S 758 mmHg 89%
    03:00 +17°C° 0 mm 2 m/S 758 mmHg 91%
    04:00 +16°C° 0 mm 2 m/S 758 mmHg 93%
    05:00 +17°C° 0 mm 2 m/S 758 mmHg 89%
    06:00 +19°C° 0 mm 2 m/S 758 mmHg 84%
    07:00 +20°C° 0 mm 2 m/S 758 mmHg 79%
    08:00 +21°C° 0 mm 2 m/S 758 mmHg 74%
    09:00 +22°C° 0 mm 3 m/S 758 mmHg 68%
    10:00 +25°C° 0 mm 3 m/S 758 mmHg 62%
    11:00 +25°C° 0,1 mm 3 m/S 758 mmHg 60%
    12:00 +26°C° 0,1 mm 3 m/S 758 mmHg 57%
    13:00 +27°C° 0,1 mm 3 m/S 758 mmHg 55%
    14:00 +27°C° 0 mm 3 m/S 758 mmHg 54%
    15:00 +27°C° 0 mm 3 m/S 757 mmHg 54%
    16:00 +27°C° 0 mm 3 m/S 757 mmHg 53%
    17:00 +26°C° 0 mm 2 m/S 757 mmHg 60%
    18:00 +25°C° 0 mm 2 m/S 757 mmHg 66%
    19:00 +24°C° 0 mm 2 m/S 757 mmHg 72%
    20:00 +21°C° 0 mm 2 m/S 757 mmHg 77%
    21:00 +19°C° 0 mm 2 m/S 757 mmHg 82%
    22:00 +17°C° 0 mm 2 m/S 757 mmHg 87%
    23:00 +17°C° 0 mm 2 m/S 757 mmHg 89%

    30 Mai, Dienstag

    Zeit Temperatur Niederschläge Wind Luftdruck Luftfeuchtigkeit
    00:00 +16°C° 0 mm 2 m/S 757 mmHg 90%
    01:00 +16°C° 0 mm 2 m/S 757 mmHg 92%
    02:00 +16°C° 0 mm 2 m/S 757 mmHg 92%
    03:00 +16°C° 0 mm 2 m/S 756 mmHg 92%
    04:00 +16°C° 0 mm 2 m/S 756 mmHg 92%
    05:00 +17°C° 0 mm 2 m/S 756 mmHg 87%
    06:00 +19°C° 0 mm 2 m/S 756 mmHg 82%
    07:00 +21°C° 0 mm 3 m/S 756 mmHg 77%
    08:00 +24°C° 0 mm 3 m/S 756 mmHg 72%
    09:00 +26°C° 0 mm 3 m/S 756 mmHg 67%
    10:00 +28°C° 0 mm 3 m/S 756 mmHg 62%
    11:00 +29°C° 0,1 mm 4 m/S 756 mmHg 59%
    12:00 +30°C° 0,1 mm 4 m/S 755 mmHg 55%
    13:00 +32°C° 0,1 mm 5 m/S 755 mmHg 52%
    14:00 +30°C° 0,2 mm 5 m/S 755 mmHg 55%
    15:00 +30°C° 0,2 mm 5 m/S 755 mmHg 57%
    16:00 +29°C° 0,2 mm 5 m/S 755 mmHg 60%
    17:00 +28°C° 0,2 mm 4 m/S 755 mmHg 67%
    18:00 +26°C° 0,2 mm 3 m/S 755 mmHg 74%
    19:00 +25°C° 0,2 mm 3 m/S 756 mmHg 81%
    20:00 +24°C° 0,1 mm 3 m/S 756 mmHg 85%
    21:00 +22°C° 0,1 mm 3 m/S 756 mmHg 89%
    22:00 +20°C° 0,1 mm 3 m/S 757 mmHg 93%
    23:00 +20°C° 0,1 mm 3 m/S 757 mmHg 94%

    31 Mai, Mittwoch

    Zeit Temperatur Niederschläge Wind Luftdruck Luftfeuchtigkeit
    00:00 +19°C° 0,1 mm 3 m/S 757 mmHg 95%
    01:00 +18°C° 0,1 mm 3 m/S 757 mmHg 96%
    02:00 +17°C° 0 mm 3 m/S 758 mmHg 96%
    03:00 +16°C° 0 mm 3 m/S 758 mmHg 96%
    04:00 +14°C° 0 mm 3 m/S 758 mmHg 96%
    05:00 +15°C° 0 mm 4 m/S 759 mmHg 92%
    06:00 +15°C° 0 mm 4 m/S 759 mmHg 89%
    07:00 +15°C° 0 mm 5 m/S 759 mmHg 85%
    08:00 +15°C° 0 mm 5 m/S 760 mmHg 84%
    09:00 +16°C° 0 mm 5 m/S 760 mmHg 82%
    10:00 +16°C° 0 mm 5 m/S 760 mmHg 81%
    11:00 +16°C° 0 mm 5 m/S 760 mmHg 78%
    12:00 +17°C° 0 mm 5 m/S 760 mmHg 76%
    13:00 +19°C° 0 mm 5 m/S 760 mmHg 73%
    14:00 +19°C° 0 mm 5 m/S 760 mmHg 72%
    15:00 +19°C° 0 mm 5 m/S 760 mmHg 71%
    16:00 +20°C° 0 mm 5 m/S 760 mmHg 70%
    17:00 +19°C° 0 mm 4 m/S 760 mmHg 72%
    18:00 +19°C° 0 mm 4 m/S 760 mmHg 74%
    19:00 +19°C° 0 mm 4 m/S 760 mmHg 76%
    20:00 +17°C° 0 mm 3 m/S 760 mmHg 82%
    21:00 +14°C° 0 mm 3 m/S 761 mmHg 87%
    22:00 +13°C° 0 mm 3 m/S 761 mmHg 93%
    23:00 +12°C° 0 mm 3 m/S 761 mmHg 94%

    1 Juni, Donnerstag

    Zeit Temperatur Niederschläge Wind Luftdruck Luftfeuchtigkeit
    00:00 +11°C° 0 mm 3 m/S 761 mmHg 95%
    01:00 +11°C° 0 mm 3 m/S 761 mmHg 96%
    02:00 +10°C° 0 mm 3 m/S 761 mmHg 96%
    03:00 +9°C° 0 mm 3 m/S 762 mmHg 96%
    04:00 +8°C° 0 mm 3 m/S 762 mmHg 97%
    05:00 +9°C° 0 mm 3 m/S 762 mmHg 92%
    06:00 +11°C° 0 mm 3 m/S 762 mmHg 86%
    07:00 +12°C° 0 mm 3 m/S 762 mmHg 81%
    08:00 +14°C° 0 mm 3 m/S 762 mmHg 71%
    09:00 +17°C° 0 mm 3 m/S 762 mmHg 61%
    10:00 +18°C° 0 mm 3 m/S 762 mmHg 51%
    11:00 +19°C° 0 mm 3 m/S 762 mmHg 47%
    12:00 +21°C° 0 mm 3 m/S 762 mmHg 43%
    13:00 +22°C° 0 mm 3 m/S 762 mmHg 39%
    14:00 +22°C° 0 mm 3 m/S 761 mmHg 40%
    15:00 +22°C° 0 mm 3 m/S 761 mmHg 41%
    16:00 +22°C° 0 mm 3 m/S 761 mmHg 42%
    17:00 +21°C° 0 mm 3 m/S 761 mmHg 49%
    18:00 +20°C° 0 mm 2 m/S 761 mmHg 56%
    19:00 +18°C° 0 mm 2 m/S 760 mmHg 63%
    20:00 +16°C° 0 mm 2 m/S 761 mmHg 69%
    21:00 +14°C° 0 mm 2 m/S 761 mmHg 74%
    22:00 +12°C° 0 mm 2 m/S 761 mmHg 80%
    23:00 +12°C° 0 mm 1 m/S 761 mmHg 82%
    Mehr zeigen